[[{"header":{"parameterUnit":"m.s-1","parameterCategory":1,"la1":30.2991,"la2":30.254,"lo1":-89.0895,"lo2":-89.0444,"dy":0.0017,"dx":0.0017,"nx":28,"ny":28,"refTime":"2025-04-17T03:00:00:Z","depth":0,"parameterNumber":2,"parameterNumberName":"U-component_of_WINDS"},"data":[0,0,0,0,0,0,0,0,0,0,0,0,0,0,0,0,0,0,0,0,0,0,0,0,0,0,0,0,0,0,0,0,0,0,0,0,0,0,0,0,0,0,0,0,0,0,0,0,0,0,0,0,0,0,0,0,0,0,-1.772,-1.7721,0,-1.7828,-1.7829,-1.783,-1.7862,-1.7862,-1.7861,-1.7861,-1.7973,-1.7977,-1.798,0,0,0,0,0,0,0,0,0,0,0,0,0,-1.7546,-1.7549,-1.772,-1.7722,-1.7723,-1.7828,-1.7829,-1.7831,-1.7862,-1.7862,-1.7861,-1.786,-1.7972,-1.7976,-1.798,0,0,0,0,0,0,0,0,0,0,0,0,0,-1.7634,-1.755,-1.772,-1.7751,-1.7755,-1.7827,-1.7829,-1.7831,-1.7863,-1.7862,-1.7861,-1.786,-1.7971,-1.7976,-1.7981,-1.803,0,0,-1.7997,-1.7999,0,0,0,0,0,0,0,0,-1.7629,-1.7641,-1.7745,-1.7749,-1.7754,-1.7831,-1.7809,-1.7898,-1.7863,-1.7822,-1.7861,-1.786,-1.7927,-1.7935,-1.7958,-1.8035,-1.804,-1.7997,-1.8001,-1.8003,-1.8004,0,0,0,0,0,0,0,-1.7623,-1.7636,-1.7763,-1.7747,-1.7752,-1.7761,-1.7773,-1.7826,-1.7878,-1.7825,-1.7828,-1.784,-1.7929,-1.7952,-1.796,-1.8042,-1.7997,-1.8002,-1.8005,-1.8007,-1.8167,-1.8168,0,0,0,0,0,0,-1.7611,-1.7631,-1.7759,-1.7766,-1.7688,-1.7765,-1.7778,-1.7807,-1.7877,-1.7887,-1.7841,-1.7841,-1.7944,-1.7954,-1.7964,-1.8027,-1.8003,-1.8008,-1.8011,-1.8166,-1.8167,-1.8169,0,0,0,0,0,0,-1.7607,-1.7622,-1.7755,-1.7699,-1.7717,-1.7769,-1.7801,-1.781,-1.7833,-1.7889,-1.7898,-1.7855,-1.7944,-1.7957,-1.8014,-1.8032,-1.801,-1.8015,-1.8165,-1.8167,-1.8168,-1.8153,0,0,0,0,0,0,-1.7602,-1.7621,-1.7639,-1.7699,-1.772,-1.7801,-1.7802,-1.7812,-1.7842,-1.7843,-1.7905,-1.7914,-1.7944,-1.8006,-1.8019,-1.8039,-1.8019,-1.8164,-1.8166,-1.8168,-1.8152,-1.8154,-1.8155,0,0,0,0,0,-1.7596,-1.7631,-1.764,-1.7655,-1.7744,-1.7802,-1.7814,-1.7847,-1.7843,-1.7863,-1.7899,-1.7912,-1.8028,-1.8011,-1.8026,-1.8048,-1.8163,-1.8165,-1.8167,-1.8151,-1.8154,-1.8155,0,0,0,0,0,0,-1.7572,-1.7639,-1.765,-1.7705,-1.7748,-1.7808,-1.7833,-1.7848,-1.7893,-1.7893,-1.7933,-1.7946,-1.8,-1.803,-1.801,-1.81,-1.8096,-1.8101,-1.8078,-1.8081,-1.8082,-1.8074,-1.8023,0,0,0,0,0,-1.7573,-1.7614,-1.7671,-1.7715,-1.7735,-1.7781,-1.7807,-1.7829,-1.7875,-1.7893,-1.7934,-1.7978,-1.8025,-1.8055,-1.8101,-1.8157,-1.8171,-1.8179,-1.8181,-1.8182,-1.8186,-1.8219,-1.8224,-1.8177,-1.8177,-1.8177,0,0,-1.7576,-1.7618,-1.7641,-1.7711,-1.7746,-1.7789,-1.7795,-1.784,-1.7873,-1.7901,-1.7956,-1.7988,-1.804,-1.8097,-1.8124,-1.8124,-1.8203,-1.8185,-1.8186,-1.819,-1.8222,-1.8227,-1.8231,-1.8178,-1.8178,-1.8178,0,0,-1.7603,-1.7638,-1.7678,-1.7714,-1.7767,-1.7798,-1.7807,-1.7865,-1.7887,-1.7943,-1.7965,-1.8005,-1.8084,-1.8121,-1.815,-1.8193,-1.8207,-1.8207,-1.8215,-1.8247,-1.8251,-1.8254,-1.827,-1.8275,-1.8211,-1.8211,-1.8211,0,-1.7599,-1.7664,-1.7698,-1.7741,-1.7772,-1.7799,-1.7841,-1.7874,-1.794,-1.7961,-1.7959,-1.8059,-1.8097,-1.8163,-1.8174,-1.8196,-1.8209,-1.8199,-1.8247,-1.8251,-1.8255,-1.827,-1.8276,-1.821,-1.8211,-1.8211,-1.8211,0,-1.7658,-1.7702,-1.7728,-1.7791,-1.7824,-1.7867,-1.7909,-1.7939,-1.7958,-1.7989,-1.8047,-1.8093,-1.8149,-1.8166,-1.8186,-1.8236,-1.8234,-1.8239,-1.8236,-1.8258,-1.8273,-1.8279,-1.821,-1.821,-1.821,-1.821,0,0,-1.7672,-1.7753,-1.7762,-1.7791,-1.7852,-1.7888,-1.7933,-1.7987,-1.8012,-1.8057,-1.8096,-1.8163,-1.8169,-1.8202,-1.8226,-1.8254,-1.8285,-1.8256,-1.8258,-1.826,-1.8344,-1.8339,-1.8346,-1.8295,-1.8297,-1.8298,-1.834,0,-1.7706,-1.7786,-1.7818,-1.7883,-1.7925,-1.7952,-1.7991,-1.8033,-1.8063,-1.8105,-1.8138,-1.8185,-1.8189,-1.8209,-1.8238,-1.8275,-1.8302,-1.8273,-1.8333,-1.8334,-1.8318,-1.8353,-1.8349,-1.8386,-1.8346,-1.8347,-1.8348,0,-1.7757,-1.7802,-1.787,-1.7928,-1.7947,-1.7981,-1.8034,-1.8072,-1.8122,-1.8142,-1.8179,-1.8202,-1.8251,-1.8245,-1.8314,-1.8292,-1.8319,-1.8342,-1.8344,-1.8351,-1.8342,-1.8361,-1.8399,-1.8404,-1.8357,-1.8356,-1.8356,0,-1.7761,-1.7838,-1.789,-1.7914,-1.7982,-1.8005,-1.8035,-1.8084,-1.8114,-1.8161,-1.8182,-1.8234,-1.8262,-1.8303,-1.8339,-1.8331,-1.8405,-1.8401,-1.8424,-1.8423,-1.8438,-1.8436,-1.848,-1.8455,-1.8455,-1.8455,-1.8455,0,-1.7796,-1.7837,-1.7892,-1.7924,-1.7971,-1.8009,-1.8055,-1.8086,-1.813,-1.8169,-1.8196,-1.8232,-1.8278,-1.8321,-1.835,-1.8403,-1.8416,-1.8434,-1.8441,-1.8432,-1.8429,-1.8449,-1.8448,-1.8456,-1.8456,-1.8456,-1.8455,0,-1.7808,-1.7846,-1.7904,-1.7964,-1.798,-1.8012,-1.8063,-1.8096,-1.8128,-1.8177,-1.8191,-1.8241,-1.8292,-1.8333,-1.8401,-1.842,-1.8476,-1.8484,-1.8459,-1.8463,-1.8483,-1.848,-1.8541,-1.8551,-1.8519,-1.852,-1.852,0,-1.7828,-1.786,-1.7923,-1.795,-1.798,-1.8024,-1.8055,-1.8094,-1.8126,-1.8186,-1.8211,-1.8264,-1.8309,-1.8391,-1.8434,-1.8486,-1.8496,-1.8514,-1.8504,-1.8493,-1.8496,-1.8494,-1.8498,-1.8514,-1.8515,-1.8515,-1.8515,0,-1.7859,-1.7877,-1.7921,-1.7971,-1.8008,-1.805,-1.8093,-1.8114,-1.8161,-1.8196,-1.8249,-1.8283,-1.8353,-1.8406,-1.8462,-1.8494,-1.8513,-1.8518,-1.8526,-1.8516,-1.85,-1.8509,-1.8462,-1.8516,-1.8516,-1.8516,-1.8516,-1.8516,-1.7876,-1.7906,-1.7955,-1.8003,-1.804,-1.8079,-1.8112,-1.8148,-1.8193,-1.8251,-1.8272,-1.8326,-1.8377,-1.8454,-1.8487,-1.8531,-1.8532,-1.8544,-1.8547,-1.8549,-1.8548,-1.8493,-1.8542,-1.8542,-1.8542,-1.8542,-1.8542,0,-1.791,-1.7942,-1.7986,-1.8045,-1.8083,-1.8096,-1.8145,-1.8176,-1.8223,-1.8268,-1.8312,-1.8373,-1.8425,-1.8472,-1.8527,-1.8553,-1.8563,-1.8566,-1.8564,-1.8572,-1.8544,-1.8531,-1.8557,-1.8557,-1.8557,-1.8557,-1.8557,-1.8557,-1.7931,-1.7983,-1.8006,-1.8077,-1.811,-1.8162,-1.8189,-1.8226,-1.8262,-1.8329,-1.8372,-1.8402,-1.8448,-1.8506,-1.8555,-1.8568,-1.8587,-1.8588,-1.8603,-1.8576,-1.8573,-1.8571,-1.856,-1.8592,-1.8592,-1.8627,-1.8628,-1.8628]},{"header":{"parameterUnit":"m.s-1","parameterCategory":1,"la1":30.2991,"la2":30.254,"lo1":-89.0895,"lo2":-89.0444,"dy":0.0017,"dx":0.0017,"nx":28,"ny":28,"refTime":"2025-04-17T03:00:00:Z","depth":0,"parameterNumber":3,"parameterNumberName":"V-component_of_WINDS"},"data":[0,0,0,0,0,0,0,0,0,0,0,0,0,0,0,0,0,0,0,0,0,0,0,0,0,0,0,0,0,0,0,0,0,0,0,0,0,0,0,0,0,0,0,0,0,0,0,0,0,0,0,0,0,0,0,0,0,0,5.9129,5.9129,0,5.9181,5.9182,5.9182,5.9105,5.9102,5.9099,5.9097,5.9145,5.9149,5.9152,0,0,0,0,0,0,0,0,0,0,0,0,0,5.8955,5.8959,5.9129,5.9129,5.913,5.9181,5.9182,5.9182,5.9105,5.9102,5.9099,5.9095,5.9144,5.9148,5.9153,0,0,0,0,0,0,0,0,0,0,0,0,0,5.9021,5.896,5.9128,5.9098,5.9095,5.9181,5.9182,5.9182,5.9106,5.9102,5.9098,5.9094,5.9142,5.9148,5.9153,5.927,0,0,5.9171,5.9173,0,0,0,0,0,0,0,0,5.9018,5.9028,5.9101,5.91,5.9098,5.9132,5.9138,5.9212,5.9107,5.9102,5.9097,5.9092,5.9144,5.9149,5.9168,5.9272,5.9274,5.9171,5.9175,5.9177,5.9179,0,0,0,0,0,0,0,5.9013,5.9025,5.9149,5.9103,5.91,5.9079,5.9084,5.9152,5.9145,5.9102,5.9096,5.9104,5.9142,5.9162,5.9168,5.9275,5.9171,5.9176,5.918,5.9182,5.9475,5.9479,0,0,0,0,0,0,5.9013,5.9022,5.9147,5.9151,5.9047,5.9086,5.9091,5.9125,5.9144,5.9143,5.9107,5.91,5.9155,5.9162,5.917,5.9305,5.9177,5.9183,5.9186,5.9471,5.9476,5.9481,0,0,0,0,0,0,5.901,5.9025,5.9145,5.9085,5.9098,5.9093,5.9132,5.9128,5.9149,5.9148,5.9146,5.913,5.9152,5.9161,5.9245,5.9306,5.9185,5.919,5.9466,5.9472,5.9478,5.9579,0,0,0,0,0,0,5.9005,5.9024,5.907,5.9086,5.9102,5.9222,5.9136,5.9132,5.9159,5.915,5.9169,5.9168,5.9149,5.9237,5.9251,5.9312,5.9195,5.946,5.9469,5.9476,5.957,5.9588,5.9603,0,0,0,0,0,5.8999,5.9096,5.9073,5.9088,5.9159,5.9226,5.9235,5.9213,5.9165,5.9209,5.9208,5.9167,5.9298,5.9246,5.9261,5.9325,5.9456,5.9466,5.9476,5.9563,5.9584,5.9603,0,0,0,0,0,0,5.9085,5.9097,5.9072,5.9177,5.9201,5.9213,5.9268,5.9237,5.9274,5.9264,5.9234,5.9239,5.9328,5.9335,5.9278,5.9437,5.9368,5.9382,5.9429,5.945,5.9467,5.9462,5.92,0,0,0,0,0,5.9116,5.9171,5.9178,5.927,5.9284,5.9275,5.9303,5.9284,5.9307,5.9316,5.9322,5.9344,5.939,5.9421,5.9463,5.9571,5.9573,5.9622,5.9638,5.9652,5.9663,5.9719,5.974,5.9513,5.9513,5.9513,0,0,5.9181,5.9194,5.9231,5.9288,5.9304,5.9359,5.9283,5.9346,5.9386,5.9325,5.9405,5.941,5.9432,5.9529,5.9571,5.9537,5.9727,5.9665,5.9676,5.9679,5.9731,5.9753,5.9772,5.9519,5.9518,5.9517,0,0,5.9326,5.9344,5.9421,5.944,5.9466,5.9459,5.9478,5.9495,5.9496,5.9576,5.9531,5.9577,5.9657,5.9675,5.9694,5.9847,5.9809,5.9861,5.9948,6.0002,6.002,6.0036,6.0088,6.0107,5.9873,5.9873,5.9873,0,5.9403,5.9487,5.9464,5.953,5.9555,5.9505,5.9581,5.96,5.9638,5.9656,5.9617,5.9716,5.9728,5.9827,5.9864,5.9882,5.99,5.9858,6.002,6.0035,6.0049,6.0099,6.0119,5.9879,5.9878,5.9878,5.9877,0,5.9578,5.9637,5.9696,5.9736,5.9768,5.9839,5.9825,5.986,5.9838,5.9835,5.9916,5.9928,5.9972,5.9994,5.9973,6.0089,6.0067,6.0025,5.9955,6.0078,6.0123,6.0142,5.9888,5.9886,5.9884,5.9882,0,0,5.9779,5.9806,5.9827,5.9844,5.987,5.9913,5.9981,6.0025,6.0054,6.0082,6.0137,6.0206,6.0167,6.0189,6.017,6.0218,6.0335,6.0169,6.0169,6.0198,6.0461,6.0492,6.0514,6.0311,6.0315,6.0318,6.0459,0,5.9923,6.0041,6.0023,6.0136,6.0189,6.0142,6.02,6.0221,6.022,6.0262,6.026,6.0308,6.0254,6.0267,6.0313,6.0311,6.0387,6.0301,6.0359,6.0361,6.0353,6.0538,6.0571,6.0704,6.0477,6.048,6.0482,0,6.0106,6.0143,6.0262,6.0278,6.03,6.0353,6.0391,6.0433,6.0455,6.045,6.0475,6.0447,6.0512,6.0443,6.0531,6.0473,6.0495,6.0498,6.0502,6.0505,6.0428,6.0544,6.0746,6.0765,6.051,6.0508,6.0506,0,6.0238,6.0317,6.0398,6.0414,6.0435,6.0474,6.0484,6.0502,6.0529,6.0562,6.0578,6.0618,6.0639,6.0669,6.0652,6.0603,6.0742,6.0672,6.0738,6.0738,6.0768,6.0766,6.0973,6.0786,6.0786,6.0785,6.0785,0,6.04,6.0474,6.0457,6.0507,6.0588,6.0565,6.0646,6.065,6.0666,6.0714,6.0676,6.0721,6.0696,6.0739,6.0726,6.0799,6.081,6.0806,6.0801,6.0809,6.0809,6.0822,6.0811,6.0791,6.0789,6.0788,6.0788,0,6.056,6.0552,6.0637,6.0651,6.0656,6.0715,6.0725,6.0771,6.0766,6.0828,6.0841,6.0833,6.0882,6.0868,6.092,6.0911,6.1004,6.0988,6.0997,6.0992,6.1059,6.1052,6.128,6.1308,6.1104,6.1106,6.1108,0,6.0663,6.0719,6.0739,6.077,6.0783,6.0833,6.086,6.0839,6.0869,6.0898,6.094,6.0985,6.102,6.11,6.1098,6.1137,6.1121,6.1198,6.1126,6.1132,6.112,6.1116,6.112,6.1212,6.1214,6.1216,6.1218,0,6.0846,6.0839,6.0882,6.0923,6.0957,6.0988,6.1015,6.1041,6.1022,6.1058,6.1108,6.1135,6.1189,6.1234,6.1269,6.1277,6.1244,6.1241,6.1258,6.1265,6.1267,6.1265,6.1034,6.1235,6.1233,6.1232,6.1231,6.123,6.0979,6.1027,6.1048,6.1096,6.1114,6.114,6.1183,6.1185,6.1227,6.127,6.1254,6.1311,6.133,6.1375,6.1388,6.143,6.14,6.1426,6.1432,6.1438,6.1445,6.1262,6.1437,6.1436,6.1436,6.1436,6.1435,0,6.1159,6.117,6.1215,6.1254,6.1291,6.1259,6.1286,6.1319,6.137,6.1391,6.1427,6.1483,6.1527,6.1529,6.1568,6.1602,6.1588,6.1613,6.1609,6.1611,6.1471,6.1451,6.1624,6.1624,6.1624,6.1624,6.1624,6.1624,6.1256,6.1334,6.1329,6.1415,6.1425,6.1481,6.15,6.1523,6.1539,6.1605,6.1641,6.1642,6.1655,6.1696,6.1733,6.1732,6.1748,6.1779,6.1772,6.164,6.1622,6.1604,6.1585,6.1783,6.1783,6.1909,6.191,6.1911]}]]